Location: Altoona
(40.5167°N, 78.4000°W)
Time: 03:38:12
(UTC-04:00)

Daily predictions for brighter satellites

Satellite Brightness Start Highest point End
(mag) Time Altitude Azimuth Time Altitude Azimuth Time Altitude Azimuth
ALOS 2 3.8 00:07:05 33° ENE 00:07:05 33° ENE 00:10:44 10° N
NOSS 3-2 (C) 3.8 00:08:05 48° ESE 00:08:05 48° ESE 00:14:00 10° NE
H-2A R/B 3.4 00:07:09 25° WSW 00:07:56 27° W 00:12:10 10° NW
Cosmos 1544 4.4 00:05:16 10° NNW 00:07:57 40° NW 00:07:57 40° NW
Cosmos 1553 Rocket 4.5 00:10:11 10° N 00:16:19 48° ENE 00:17:19 44° ESE
Cosmos 2082 Rocket 3.9 00:18:14 19° E 00:18:14 19° E 00:21:12 10° NE
Cosmos 1707 3.8 00:24:10 44° NNW 00:24:10 44° NNW 00:27:02 10° N
Cosmos 1943 Rocket 3.6 00:22:55 10° NW 00:27:23 25° WSW 00:27:40 25° WSW
SL-8 R/B 4.0 00:24:50 10° WNW 00:28:57 63° NW 00:28:57 63° NW
Cosmos 468 Rocket 4.0 00:30:04 10° NNW 00:35:15 70° ENE 00:35:15 70° ENE
ISS 0.2 00:36:07 10° NNW 00:37:29 12° N 00:38:52 10° NNE
Meteor 1-24 Rocket 3.7 00:39:21 77° SSW 00:39:49 88° W 00:45:47 10° N
Cosmos 1656 Rocket 4.3 00:35:14 10° NW 00:40:27 42° WSW 00:40:27 42° WSW
Cosmos 1814 Rocket 4.1 00:37:32 10° NNW 00:42:46 72° ENE 00:42:46 72° ENE
S3M 3.8 00:37:30 10° N 00:43:46 79° E 00:44:21 72° SE
Landsat 5 4.5 00:50:14 43° N 00:50:14 43° N 00:53:02 10° N
H-2A R/B 3.6 00:46:34 10° N 00:49:07 39° N 00:49:07 39° N
Cosmos 1766 Rocket 4.2 00:51:41 56° NNW 00:51:41 56° NNW 00:55:20 10° N
NOSS 3-2 (A) 3.6 00:50:05 53° WSW 00:51:31 72° NW 00:58:11 10° NNE
Cosmos 1655 Rocket 4.2 00:51:26 52° WSW 00:52:28 59° W 00:58:40 10° N
Cosmos 1428 Rocket 4.3 00:53:12 76° SSW 00:53:44 88° W 00:59:59 10° N
Timation 2 Rocket 4.0 00:54:32 68° S 00:55:24 79° ESE 01:02:15 10° NNE
Cosmos 1076 Rocket 4.4 00:57:52 44° NW 00:57:52 44° NW 01:01:07 10° N
CZ-2C R/B 3.5 00:52:37 10° NNE 00:57:28 39° E 00:57:28 39° E
Cosmos 1486 Rocket 4.0 00:58:22 77° NNE 00:58:22 77° NNE 01:03:13 10° NNE
Cosmos 2221 3.9 00:55:05 10° NNW 00:58:04 32° WNW 00:58:04 32° WNW
CZ-4C R/B 2.3 00:58:46 59° W 00:59:27 65° NW 01:05:25 10° NNE
Cosmos 1328 Rocket 4.3 00:55:55 10° N 00:59:20 49° NNE 00:59:20 49° NNE
Meteor 2-20 4.5 01:00:24 61° ESE 01:00:47 63° E 01:06:52 10° NNE
Cosmos 2344 3.6 01:07:08 57° SSE 01:08:34 67° ESE 01:17:04 10° NE
In-Cosmos 22 4.2 01:08:53 71° E 01:08:53 71° E 01:14:26 10° NNE
Cosmos 1818 3.5 01:03:21 10° NNW 01:08:30 78° WNW 01:08:30 78° WNW
Cosmos 1515 Rocket 4.2 01:09:19 10° N 01:12:52 53° NNE 01:12:52 53° NNE
Cosmos 1763 Rocket 3.5 01:09:38 10° NNW 01:14:50 74° NE 01:14:50 74° NE
CZ-4B R/B 3.8 01:17:49 22° NW 01:17:49 22° NW 01:19:29 10° NNW
Meteor 1-21 Rocket 4.1 01:18:19 77° ESE 01:18:23 77° E 01:24:04 10° NNE
Lacrosse 5 3.4 01:14:18 10° NNW 01:18:54 33° NE 01:21:51 19° E
Cosmos 2369 3.6 01:14:26 10° NNW 01:19:53 75° W 01:19:53 75° W
Cosmos 2228 Rocket 4.1 01:17:28 10° NNW 01:20:39 41° NW 01:20:39 41° NW
Cosmos 724 4.1 01:34:02 85° SSE 01:34:09 86° ESE 01:40:03 10° NNE
Meteor 2-2 Rocket 4.1 01:28:27 10° N 01:34:13 86° E 01:34:28 82° SE
Cosmos 1980 Rocket 3.3 01:35:34 10° N 01:40:51 39° ENE 01:42:54 29° ESE
Cosmos 2278 4.4 01:37:04 10° NW 01:41:40 40° W 01:41:40 40° W
Cosmos 1867 4.1 01:42:42 48° W 01:43:25 52° NW 01:48:47 10° NNE
Cosmos 1354 Rocket 4.1 01:45:26 65° WNW 01:45:29 65° WNW 01:50:47 10° NNE
Lacrosse 5 rocket 4.0 01:45:32 10° NNW 01:48:45 20° NNE 01:52:04 10° ENE
CENTAUR R/B 2.5 01:50:42 62° SE 01:51:07 64° ESE 01:57:48 10° NE
Cosmos 1503 Rocket 4.2 01:51:14 60° WNW 01:51:23 61° WNW 01:56:39 10° NNE
Cosmos 2058 4.0 01:54:35 40° ENE 01:54:35 40° ENE 01:57:46 10° NNE
USA 32 4.1 01:49:22 10° N 01:54:37 69° E 01:54:47 69° E
Cosmos 841 Rocket 4.0 01:50:07 10° NNW 01:54:33 49° WNW 01:54:33 49° WNW
Cosmos 1300 4.3 01:52:29 10° NNE 01:55:21 31° NE 01:55:21 31° NE
Nadezhda 2 Rocket 4.4 01:56:22 65° SW 01:57:12 75° W 02:03:31 10° N
Cosmos 1441 Rocket 4.4 02:00:22 41° NNW 02:00:22 41° NNW 02:03:09 10° N
Cosmos 1707 Rocket 4.3 01:55:10 10° N 01:59:04 45° ENE 01:59:04 45° ENE
Cosmos 2082 Rocket 2.5 02:00:04 51° W 02:00:45 54° WNW 02:06:19 10° NNE
Cosmos 1697 Rocket 2.5 01:55:21 10° NNW 02:01:03 89° WSW 02:01:24 80° SSE
Cosmos 1666 Rocket 4.5 02:02:21 40° ENE 02:02:21 40° ENE 02:05:57 10° NNE
Cosmos 1437 Rocket 4.0 01:58:21 10° NNW 02:00:53 38° NNW 02:00:53 38° NNW
CZ-2C R/B 3.1 02:05:11 76° SW 02:05:28 79° WSW 02:11:12 10° NNW
Cosmos 2151 3.5 02:06:59 54° NNW 02:06:59 54° NNW 02:10:25 10° N
Cosmos 1151 Rocket 4.0 02:03:00 10° NNW 02:06:00 39° NW 02:06:00 39° NW
Cosmos 1833 Rocket 2.8 02:07:07 58° W 02:07:43 61° WNW 02:13:20 10° NNE
ATLAS 5 CENTAUR R/B 4.1 02:14:08 12° ESE 02:14:15 12° ESE 02:16:15 10° E
ISS -0.2 02:12:46 10° NNW 02:14:58 17° NNE 02:17:10 10° ENE
Cosmos 783 Rocket 4.4 02:09:48 10° NNW 02:15:07 89° WSW 02:15:21 82° SSE
ASTEX 1 3.3 02:12:04 10° N 02:17:04 85° W 02:17:04 85° W
Cosmos 1726 3.3 02:16:49 10° N 02:19:41 40° NE 02:19:41 40° NE
Cosmos 332 Rocket 3.9 02:16:46 10° NNW 02:21:34 68° ENE 02:21:55 65° E
Cosmos 2315 Rocket 4.3 02:17:10 10° NNW 02:23:12 49° W 02:23:53 47° WSW
Cosmos 1674 4.5 02:25:43 24° NW 02:25:43 24° NW 02:27:56 10° NNW
Cosmos 1656 4.4 02:23:11 10° NW 02:27:54 38° W 02:27:54 38° W
Cosmos 2360 4.4 02:23:41 10° NNW 02:29:24 68° ENE 02:31:29 39° SE
Landsat 4 4.4 02:30:13 53° NNE 02:30:13 53° NNE 02:33:15 10° N
Cosmos 1745 Rocket 4.0 02:29:28 54° S 02:31:03 80° E 02:37:25 10° N
Sich 1 3.1 02:31:28 77° NE 02:31:28 77° NE 02:35:43 10° N
SL-08 R/B 4.5 02:33:33 27° ESE 02:35:32 40° ENE 02:40:08 10° N
CZ-2C R/B 4.0 02:33:13 10° N 02:37:51 28° WNW 02:39:00 26° W
Nadezhda 1 Rocket 4.0 02:31:52 10° N 02:38:02 76° E 02:40:02 45° SSE
Cosmos 1626 3.9 02:40:53 24° E 02:41:08 24° E 02:44:13 10° NE
Meteor 1-27 4.2 02:37:42 10° NNW 02:43:33 72° W 02:44:37 58° SSW
SL-16 R/B 3.0 02:38:30 10° NNW 02:44:00 48° ENE 02:48:36 14° SE
JB-3 4.4 02:44:05 10° NNE 02:47:48 77° NNE 02:47:48 77° NNE
Aureole 1 Rocket 4.2 02:45:58 10° NW 02:50:20 40° W 02:50:20 40° W
SL-14 R/B 3.7 02:51:16 52° NW 02:51:16 52° NW 02:54:29 10° N
Cosmos 1862 Rocket 4.4 02:48:22 10° N 02:52:42 46° ENE 02:54:04 35° SE
Cosmos 2322 Rocket 2.5 02:50:05 10° NNW 02:55:41 64° ENE 02:59:24 21° SE
ARIANE 5 R/B 4.4 02:53:34 10° NE 02:57:31 22° E 03:00:17 15° SE
Cosmos 540 Rocket 4.1 02:52:54 10° NW 02:57:19 38° W 02:57:19 38° W
Lacrosse 5 2.4 02:57:08 10° NW 03:00:56 41° W 03:00:56 41° W
Cosmos 1703 3.2 03:02:50 77° WNW 03:02:50 77° WNW 03:06:43 10° N
PSLV R/B 4.0 02:58:27 10° N 03:02:53 49° WNW 03:03:15 48° W
USA 215 3.2 02:59:27 10° NE 03:06:01 82° SE 03:08:41 39° SW
ADEOS 4.1 03:02:48 10° NNE 03:07:55 51° E 03:09:57 33° SSE
Cosmos 1271 Rocket 2.6 03:06:12 10° N 03:10:00 77° ENE 03:10:13 73° ESE
ATLAS 2A CENTAUR R/B 4.5 03:06:54 19° SSE 03:10:10 24° SE 03:27:26 10° E
Cosmos 371 Rocket 3.3 03:07:48 10° NNW 03:12:34 57° WSW 03:13:03 55° SW
CZ-2D R/B 3.8 03:15:36 10° NE 03:19:59 26° E 03:24:00 12° SSE
Cosmos 1980 Rocket 3.1 03:19:53 10° NW 03:24:36 29° WSW 03:24:36 29° WSW
BREEZE-M DEB (TANK) 4.3 03:20:49 10° WNW 03:25:07 25° N 03:27:23 10° ENE
ATLAS CENTAUR R/B 4.5 03:22:06 10° N 03:25:29 19° NE 03:28:42 10° E
Cosmos 2360 Rocket 3.4 03:20:19 10° N 03:25:38 41° ENE 03:30:56 10° SE
ERS-2 2.8 03:22:15 10° N 03:25:46 41° WNW 03:25:52 41° WNW
Lacrosse 5 rocket 1.4 03:24:06 10° NW 03:28:31 84° SW 03:33:04 10° SE
Cosmos 1933 4.4 03:25:45 10° N 03:29:36 42° ENE 03:32:16 18° SE
NPP 3.8 03:24:47 10° N 03:30:05 60° WNW 03:32:03 37° SW
Cosmos 1633 Rocket 4.4 03:29:41 24° W 03:30:06 24° WNW 03:33:44 10° NNW
Cosmos 2112 Rocket 4.4 03:27:51 10° NNW 03:33:01 62° ENE 03:38:08 10° SSE
Meteor 1-4 Rocket 2.9 03:30:08 10° NNW 03:33:48 50° W 03:33:52 50° W
Meteor 2-10 4.3 03:31:27 10° NNW 03:36:32 50° W 03:38:21 36° SW
AQUA 4.1 03:35:05 10° N 03:39:44 53° WNW 03:41:19 36° SW
Cosmos 2181 Rocket 3.9 03:33:53 10° N 03:40:03 79° W 03:44:14 22° S
OAO 3 Rocket 3.4 03:40:41 40° SSW 03:41:13 42° S 03:45:39 10° ESE
Cosmos 2292 Rocket 2.6 03:41:40 67° SW 03:42:00 78° W 03:45:35 10° N
Cosmos 2219 4.4 03:38:06 16° SSE 03:42:05 36° ESE 03:47:17 10° NE
CENTAUR R/B 4.0 03:37:51 14° W 03:42:20 29° NW 03:48:20 10° NNE
Cosmos 2322 4.4 03:37:43 10° NNW 03:43:23 56° ENE 03:48:59 10° SE
Cosmos 1703 Rocket 3.7 03:43:35 10° N 03:47:57 72° E 03:51:02 19° SSE
UNK 4.5 03:44:50 10° SSE 03:49:16 52° ENE 03:53:43 10° N
ISS -3.1 03:48:38 10° NW 03:51:54 69° NE 03:55:08 10° ESE
ATLAS 5 CENTAUR R/B 1.9 03:55:40 31° SW 03:58:05 77° NW 04:03:20 10° NNE
Cosmos 1455 3.1 03:55:29 10° NNW 03:58:49 30° W 03:59:10 29° WSW
Cosmos 2298 Rocket 4.2 04:03:21 19° S 04:07:11 70° ESE 04:12:30 10° NNE
USA 229 DEB 4.0 04:03:01 19° SSW 04:08:08 62° ESE 04:15:00 10° NE
USA 229 4.1 04:03:06 18° SSW 04:08:14 61° ESE 04:15:07 10° NE
BREEZE-M DEB (TANK) 4.5 03:59:35 10° WNW 04:08:41 49° N 04:12:06 10° ENE
Cosmos 2074 Rocket 4.0 04:03:57 16° S 04:08:59 89° W 04:15:17 10° N
Resurs 1-4 Rocket 2.2 04:04:27 10° NNE 04:09:48 78° ESE 04:14:13 15° S
Spot 4 Rocket 4.4 04:05:37 10° N 04:10:35 50° WNW 04:13:36 23° SW
Okean 1-7 3.1 04:07:07 10° N 04:11:31 81° E 04:15:52 10° S
USA 161 3.2 04:14:46 15° WNW 04:14:46 15° WNW 04:15:36 10° NW
Cosmos 1833 4.3 04:10:10 23° SW 04:13:54 69° WNW 04:19:39 10° NNE
COSMOS 2428 3.7 04:09:11 10° NNW 04:14:42 50° ENE 04:20:12 10° SE
Cosmos 2184 Rocket 4.0 04:09:43 15° S 04:15:06 83° W 04:21:29 10° N
Cosmos 1626 3.8 04:15:37 18° W 04:16:31 19° WNW 04:19:17 10° NNW
SL-16 R/B 2.5 04:10:37 10° S 04:16:51 76° WSW 04:23:10 10° NNW
SL-08 ROCKET BODY 4.4 04:14:03 13° S 04:19:34 90° ESE 04:25:44 10° N
Cosmos 1680 Rocket 3.9 04:15:18 10° NNW 04:20:11 41° WSW 04:24:23 13° SSW
Cosmos 1892 4.5 04:16:58 10° SSE 04:20:24 30° E 04:23:50 10° NNE
GENESIS II 4.2 04:17:32 10° NW 04:21:38 66° WSW 04:25:38 10° SSE
Cosmos 2327 Rocket 4.5 04:17:08 16° SSW 04:22:10 71° W 04:28:22 10° N
GPS 2-05 Rocket1 3.4 04:24:25 26° SW 04:25:37 35° S 04:28:45 10° ESE
SL-16 R/B 3.3 04:23:21 10° NW 04:27:44 23° W 04:30:22 17° SW
SME Rocket 3.9 04:23:28 10° SSE 04:30:13 81° ENE 04:34:48 10° NNW
UNKNOWN OBJECT B 2.7 04:26:30 10° N 04:30:20 86° WNW 04:33:41 14° SSW
Okean O Rocket 2.2 04:27:29 10° NNE 04:31:52 57° E 04:36:11 10° S
MTI 4.0 04:30:34 12° S 04:33:30 54° W 04:36:49 10° NNW
ARIANE 5 R/B 3.1 04:32:02 10° N 04:36:47 41° WNW 04:40:39 15° SW
Cosmos 2237 4.4 04:31:25 10° NNW 04:37:11 79° ENE 04:42:55 10° SSE
ASTRO F (AKARI) 4.2 04:35:17 10° SSE 04:38:33 83° WSW 04:41:45 10° NNW
Cosmos 2322 Rocket 3.7 04:35:39 10° WNW 04:39:06 17° W 04:41:08 14° WSW
Thor Agena Rocket 4.0 04:35:34 10° SSE 04:40:48 68° ENE 04:46:05 10° N
IRS-1D 4.1 04:35:51 10° N 04:40:54 44° WNW 04:45:17 13° SW
Meteor 2-3 Rocket 3.8 04:37:59 10° SSW 04:43:46 80° W 04:49:36 10° N
IRS-1C Rocket 4.1 04:40:23 10° NNE 04:45:42 89° WNW 04:50:59 10° SSW
Cosmos 2219 Rocket 3.4 04:42:12 10° NNW 04:47:35 45° ENE 04:52:54 10° SE
USA 215 4.4 04:42:48 10° NE 04:48:37 36° NNW 04:54:26 10° W
Cosmos 1898 Rocket 3.7 04:44:57 12° SSW 04:49:37 59° WNW 04:54:45 10° NNE
BREEZE-M DEB (TANK) 3.3 04:40:00 13° SW 04:49:59 78° SSE 04:53:24 10° ENE
H-2A R/B 4.3 04:44:36 10° WSW 04:51:00 51° S 05:35:43 10° ESE
Cosmos 389 Rocket 2.5 04:49:37 10° NNW 04:53:20 81° W 04:57:00 10° S
Cosmos 1937 Rocket 3.6 04:50:48 10° SSW 04:56:05 73° WNW 05:01:25 10° NNE
MOZ.5/SAFIR/RUBIN 5/SL-8 4.0 04:54:23 10° SSE 04:59:02 78° ENE 05:03:47 10° N
CZ-2D R/B 2.8 04:55:19 10° N 05:00:08 38° WNW 05:04:59 10° SW
Okean-O 4.0 04:56:05 10° NNE 05:00:15 39° E 05:04:24 10° SSE
PSLV R/B 4.0 05:00:42 10° N 05:04:36 61° WNW 05:08:34 10° SSW
ATLAS CENTAUR R/B 1.6 05:00:29 10° NW 05:05:04 60° WSW 05:09:15 10° SSE
Lacrosse 5 rocket 3.4 05:06:03 10° WSW 05:07:13 11° WSW 05:08:23 10° SW
Meteor 1-10 Rocket 4.4 05:03:00 10° N 05:08:45 88° E 05:14:34 10° S
Cosmos 2360 Rocket 3.1 05:04:43 10° NW 05:09:24 27° WSW 05:14:05 10° SSW
CZ-4B R/B 3.0 05:07:25 10° NNE 05:11:29 87° W 05:15:45 10° SSW
CZ-2D R/B 4.1 05:08:00 10° N 05:11:53 39° WNW 05:15:39 10° SW
Cosmos 2227 Rocket 3.0 05:07:04 10° S 05:12:30 52° ESE 05:17:58 10° NNE
